Location: Buchdorf
(48.7842°N, 10.8275°E)
Time: 18:38:51
(UTC+00:00)

Cosmos 2219 Rocket - Pass Details

Date: 09 April 2020
Orbit: 829 x 845 km, 71.0° (Epoch: 01 June)

Event Time Altitude Azimuth Distance (km) Brightness Sun altitude
Rises 22:25:27 0° 336° (NNW) 3,390 6.4 -32.0°
Reaches altitude 10° 22:28:27 10° 351° (N) 2,450 5.5 -32.2°
Maximum altitude 22:32:48 23° 42° (NE) 1,724 4.1 -32.3°
Enters shadow 22:33:57 21° 59° (ENE) 1,781 4.0 -32.4°
